Milwaukee, WI

12:21 AM CST on December 12, 2017 (GMT -0600)
Gen Mitchell International

Weather History for KMKE - October, 2013

Change the Weather History Date:

Thursday, October 3, 2013

  Actual Average Record
Temperature  
Mean Temperature 68 °F 56 °F  
Max Temperature 77 °F 64 °F 86 °F (2005)
Min Temperature 58 °F 48 °F 27 °F (1974)
Degree Days  
Heating Degree Days 0 10  
Month to date heating degree days 3 28  
Since 1 July heating degree days 133 180  
Cooling Degree Days 3 1  
Month to date cooling degree days 8 3  
Year to date cooling degree days 686 637  
Growing Degree Days 17 (Base 50)    
Moisture  
Dew Point 62 °F    
Average Humidity 82    
Maximum Humidity 100    
Minimum Humidity 64    
Precipitation  
Precipitation 0.70 in 0.09 in 2.27 in (1911)
Month to date precipitation 0.70 0.27  
Year to date precipitation 32.37 27.63  
Snow  
Snow 0.00 in 0.00 in 0.00 in ()
Month to date snowfall 0.0 0.0  
Since 1 July snowfall 0.0 0.0  
Since 1 September snowfall 0.0 0.0  
Snow Depth 0.00 in    
Sea Level Pressure  
Sea Level Pressure 29.92 in    
Wind  
Wind Speed 6 mph (South)    
Max Wind Speed 17 mph    
Max Gust Speed 22 mph    
Visibility 6 miles    
Events Fog , Rain , Thunderstorm    
T = Trace of Precipitation, MM = Missing Value Source: NWS Daily Summary

Daily Weather History Graph

Daily Weather History Graph

Search for Another Location

Airport or City:

Trip Planner

Search our weather history database for the weather conditions in past years. The results will help you decide how hot, cold, wet, or windy it might be!

Date:

Astronomy

Oct. 03, 2013 Rise Set
Actual Time 6:51 AM CDT 6:28 PM CDT
Civil Twilight 6:23 AM CDT 6:57 PM CDT
Nautical Twilight 5:50 AM CDT 7:29 PM CDT
Astronomical Twilight 5:17 AM CDT 8:03 PM CDT
Moon 5:23 AM CDT (10/3) 5:37 PM CDT (10/3)
Length of Visible Light 12h 33m
Length of Day
11h 37m
Waning Crescent, 2% of the Moon is Illuminated
Oct 3
Waning Crescent
Oct 4
New
Oct 11
First Quarter
Oct 18
Full
Oct 26
Last Quarter

Hourly Weather History & Observations

Time (CDT) Temp. Dew Point Humidity Pressure Visibility Wind Dir Wind Speed Gust Speed Precip Events Conditions
12:52 AM 61.0 °F 54.0 °F 78% 29.99 in 10.0 mi SE 4.6 mph - N/A   Partly Cloudy
1:52 AM 61.0 °F 54.0 °F 78% 29.98 in 10.0 mi Calm Calm - N/A   Scattered Clouds
2:52 AM 60.1 °F 54.0 °F 80% 29.96 in 10.0 mi Calm Calm - N/A   Scattered Clouds
3:04 AM 59.0 °F 53.6 °F 82% 29.96 in 10.0 mi Calm Calm - N/A   Mostly Cloudy
3:52 AM 62.1 °F 55.9 °F 80% 29.95 in 10.0 mi SE 3.5 mph - N/A   Mostly Cloudy
3:59 AM 62.6 °F 55.4 °F 77% 29.95 in 10.0 mi Calm Calm - N/A   Overcast
4:15 AM 62.6 °F 55.4 °F 77% 29.95 in 10.0 mi South 3.5 mph - N/A   Overcast
4:52 AM 63.0 °F 57.9 °F 84% 29.94 in 10.0 mi SSE 4.6 mph - N/A   Overcast
4:59 AM 62.6 °F 59.0 °F 88% 29.94 in 10.0 mi SSE 5.8 mph - N/A   Mostly Cloudy
5:45 AM 62.6 °F 60.8 °F 94% 29.94 in 9.0 mi SSE 5.8 mph - N/A   Mostly Cloudy
5:52 AM 63.0 °F 60.1 °F 90% 29.94 in 8.0 mi SSE 4.6 mph - N/A   Overcast
6:15 AM 62.6 °F 60.8 °F 94% 29.94 in 7.0 mi SSE 6.9 mph - N/A   Overcast
6:33 AM 62.6 °F 62.6 °F 100% 29.94 in 1.5 mi SSE 3.5 mph - N/A   Overcast
6:52 AM 63.0 °F 62.1 °F 97% 29.94 in 1.5 mi South 4.6 mph - N/A   Overcast
6:59 AM 64.4 °F 62.6 °F 94% 29.95 in 0.5 mi South 4.6 mph - N/A   Overcast
7:25 AM 62.6 °F 62.6 °F 100% 29.95 in 0.5 mi South 8.1 mph - N/A Fog Fog
7:33 AM 62.6 °F 62.6 °F 100% 29.95 in 0.5 mi South 5.8 mph - N/A Fog Fog
7:52 AM 64.0 °F 63.0 °F 96% 29.94 in 0.8 mi SSE 5.8 mph - N/A   Overcast
8:48 AM 64.4 °F 62.6 °F 94% 29.95 in 1.2 mi SW 9.2 mph - 0.00 in Rain Light Rain
8:52 AM 64.9 °F 63.0 °F 93% 29.96 in 1.2 mi West 10.4 mph - 0.00 in Rain , Thunderstorm Light Thunderstorms and Rain
9:11 AM 64.4 °F 64.4 °F 100% 29.96 in 0.2 mi SW 6.9 mph - 0.21 in Fog , Rain , Thunderstorm Heavy Thunderstorms and Rain
9:20 AM 64.4 °F 62.6 °F 94% 29.95 in 0.2 mi West 3.5 mph - 0.44 in Fog , Rain Light Rain
9:24 AM 64.4 °F 64.4 °F 100% 29.95 in 3.0 mi West 3.5 mph - 0.45 in Rain Light Rain
9:32 AM 64.4 °F 64.4 °F 100% 29.95 in 3.0 mi Calm Calm - 0.47 in Rain Rain
9:41 AM 64.4 °F 64.4 °F 100% 29.94 in 3.0 mi Calm Calm - 0.48 in Rain Light Rain
9:52 AM 64.9 °F 64.0 °F 97% 29.94 in 3.0 mi Calm Calm - 0.49 in Rain Light Rain
10:52 AM 68.0 °F 66.0 °F 93% 29.94 in 5.0 mi SSE 6.9 mph - 0.00 in   Overcast
11:33 AM 69.8 °F 66.2 °F 88% 29.94 in 4.0 mi SSW 10.4 mph - N/A   Overcast
11:52 AM 68.0 °F 66.0 °F 93% 29.94 in 3.0 mi SSW 13.8 mph - N/A   Overcast
12:52 PM 69.1 °F 66.9 °F 93% 29.91 in 3.0 mi SSW 6.9 mph - 0.00 in Rain Light Rain
1:24 PM 71.6 °F 66.2 °F 83% 29.90 in 3.0 mi SSW 12.7 mph - 0.00 in   Scattered Clouds
1:35 PM 71.6 °F 66.2 °F 83% 29.90 in 10.0 mi SSW 11.5 mph - 0.00 in   Mostly Cloudy
1:45 PM 73.4 °F 66.2 °F 78% 29.89 in 10.0 mi SW 10.4 mph - 0.00 in   Mostly Cloudy
1:52 PM 73.9 °F 66.0 °F 76% 29.88 in 10.0 mi SSW 12.7 mph - 0.00 in   Mostly Cloudy
2:52 PM 75.9 °F 64.9 °F 69% 29.86 in 10.0 mi South 12.7 mph - N/A   Mostly Cloudy
3:52 PM 75.0 °F 63.0 °F 66% 29.85 in 10.0 mi South 10.4 mph - N/A   Mostly Cloudy
4:41 PM 75.2 °F 64.4 °F 69% 29.86 in 10.0 mi SW 10.4 mph - N/A   Mostly Cloudy
4:52 PM 75.0 °F 64.0 °F 69% 29.86 in 10.0 mi SW 11.5 mph - N/A   Mostly Cloudy
5:52 PM 73.0 °F 64.9 °F 76% 29.85 in 10.0 mi SE 8.1 mph - N/A   Mostly Cloudy
6:38 PM 68.0 °F 64.4 °F 88% 29.86 in 9.0 mi SE 6.9 mph - N/A   Mostly Cloudy
6:52 PM 68.0 °F 64.9 °F 90% 29.86 in 9.0 mi SE 5.8 mph - N/A   Mostly Cloudy
7:52 PM 66.9 °F 64.9 °F 93% 29.87 in 5.0 mi SE 4.6 mph - N/A   Mostly Cloudy
8:52 PM 66.9 °F 64.9 °F 93% 29.86 in 7.0 mi East 4.6 mph - N/A   Mostly Cloudy
9:52 PM 66.0 °F 64.0 °F 93% 29.86 in 6.0 mi ESE 3.5 mph - N/A   Scattered Clouds
11:23 PM 64.4 °F 60.8 °F 88% 29.91 in 9.0 mi North 4.6 mph - 0.00 in Rain Light Rain
11:52 PM 64.0 °F 62.1 °F 93% 29.92 in 9.0 mi Variable 3.5 mph - 0.00 in   Overcast